Regional Weather Roundup
Issued by NWS Albany, NY

Home | Current Version | Previous Version | Text Only | Print | Product List | Glossary On
Versions: 1 2 3 4 5 6 7 8 9 10 11 12 13 14 15 16 17 18 19 20 21 22 23 24 25 26 27
000
ASUS41 KALY 211610
RWRALY

NEW YORK STATE HOURLY WEATHER ROUNDUP
NATIONAL WEATHER SERVICE ALBANY NY
1100 AM EST TUE FEB 21 2017

NOTE: "FAIR" INDICATES FEW OR NO CLOUDS BELOW 12,000 FEET WITH NO
SIGNIFICANT WEATHER AND/OR NO OBSTRUCTIONS TO VISIBILITY.

NYZ032-033-038>043-046>054-057>066-NYZ062>081-082-084-211700-
EAST


CITY           SKY/WX    TMP DP  RH WIND       PRES   REMARKS
ALBANY         CLOUDY    35  15  44 S10       30.31F WCI  27
GLENS FALLS    CLOUDY    33  17  51 S6        30.30F WCI  28
POUGHKEEPSIE   CLOUDY    37  17  44 CALM      30.34F
NEWBURGH       PTSUNNY   37  18  44 CALM      30.35F
MONTGOMERY     CLOUDY    38  20  48 CALM      30.33F
WHITE PLAINS   CLOUDY    40  19  43 SE6       30.34F
ISLIP          PTSUNNY   42  23  46 S7        30.36F
NEW YORK CITY  PTSUNNY   44  22  41 NE10      30.36F
CENTRAL PARK   MOSUNNY   45  22  40 MISG      30.38F
$$

NYZ005>009-017-018-044>046-055-056-211700-
CENTRAL


CITY           SKY/WX    TMP DP  RH WIND       PRES   REMARKS
FULTON         CLOUDY    36  17  46 SE9       30.12F WCI  29
SYRACUSE       CLOUDY    41  16  36 E9        30.13F
ROME           CLOUDY    34  18  52 E15       30.23F WCI  24
ELMIRA         MOSUNNY   43  16  33 SW10      30.17F
BINGHAMTON     CLOUDY    35  13  40 S9        30.17F WCI  28
MONTICELLO     CLOUDY    36  16  44 SW6       30.29F WCI  31
$$

NYZ026>034-041>043-087-211700-
NORTH


CITY           SKY/WX    TMP DP  RH WIND       PRES   REMARKS
WATERTOWN      CLOUDY    43  17  35 SE8       30.09F
FORT DRUM      NOT AVBL
OGDENSBURG     FAIR      38  18  45 CALM      30.12F
MASSENA        CLOUDY    31  21  66 N7        30.19F WCI  24
SARANAC LAKE   CLOUDY    35  11  36 VRB5      30.12F WCI  31
PLATTSBURGH    CLOUDY    34  19  54 S12       30.22F WCI  25
$$

NYZ001>004-010>016-019>021-085-211700-
WEST


CITY           SKY/WX    TMP DP  RH WIND       PRES   REMARKS
NIAGARA FALLS  CLOUDY    52  27  38 S12       30.01F
BUFFALO        CLOUDY    53  28  38 S15       30.01F
DUNKIRK        CLOUDY    52  29  41 S20G26    30.02S
JAMESTOWN      CLOUDY    46  25  42 S12       30.05S
WELLSVILLE     MOSUNNY   46  18  32 S8G16     30.08F
ROCHESTER      CLOUDY    48  23  37 S10       30.04F
PENN YAN       CLOUDY    42  17  36 S22G31    30.10F
$$

             KEY
       WCI = WIND CHILL INDEX
       VSB = VISIBILITY
       HX  = HEAT INDEX
$$




USA.gov is the U.S. government's official web portal to all federal, state and local government web resources and services.